Time,TemperatureF,DewpointF,PressureIn,WindDirection,WindDirectionDegrees,WindSpeedMPH,WindSpeedGustMPH,Humidity,HourlyPrecipIn,Conditions,Clouds,dailyrainin,SoftwareType,DateUTC
2013-01-10 12:30:00,32.0,30.0,-100.00,West,276,2.0,-999.0,91,0.00,,,-99.99,,2013-01-10 21:30:00,
2013-01-10 12:53:00,32.0,30.0,-100.00,West,276,2.0,-999.0,91,0.00,,,-99.99,,2013-01-10 21:53:00,
2013-01-10 13:03:00,32.0,30.0,-100.00,West,276,2.0,-999.0,91,0.00,,,-99.99,,2013-01-10 22:03:00,
2013-01-10 13:12:00,32.0,30.0,-100.00,West,276,2.0,-999.0,91,0.00,,,-99.99,,2013-01-10 22:12:00,
2013-01-10 13:23:00,32.0,30.0,-100.00,West,276,2.0,-999.0,91,0.00,,,-99.99,,2013-01-10 22:23:00,
2013-01-10 13:30:00,31.0,30.0,-100.00,SE,140,7.0,-999.0,94,0.00,,,-99.99,,2013-01-10 22:30:00,
2013-01-10 14:02:00,31.0,30.0,-100.00,SE,140,7.0,-999.0,94,0.00,,,-99.99,,2013-01-10 23:02:00,
2013-01-10 14:12:00,31.0,30.0,-100.00,SE,140,7.0,-999.0,94,0.00,,,-99.99,,2013-01-10 23:12:00,
2013-01-10 14:22:00,31.0,30.0,-100.00,SE,140,7.0,-999.0,94,0.00,,,-99.99,,2013-01-10 23:22:00,
2013-01-10 14:30:00,32.0,30.0,-100.00,ENE,62,7.0,-999.0,95,0.00,,,-99.99,,2013-01-10 23:30:00,
2013-01-10 14:53:00,32.0,30.0,-100.00,ENE,62,7.0,-999.0,95,0.00,,,-99.99,,2013-01-10 23:53:00,
2013-01-10 15:02:00,32.0,30.0,-100.00,ENE,62,7.0,-999.0,95,0.00,,,-99.99,,2013-01-11 00:02:00,
2013-01-10 15:12:00,32.0,30.0,-100.00,ENE,62,7.0,-999.0,95,0.00,,,-99.99,,2013-01-11 00:12:00,
2013-01-10 15:22:00,32.0,30.0,-100.00,ENE,62,7.0,-999.0,95,0.00,,,-99.99,,2013-01-11 00:22:00,
2013-01-10 15:30:00,32.0,30.0,-100.00,ENE,57,13.0,-999.0,93,0.00,,,-99.99,,2013-01-11 00:30:00,
2013-01-10 15:53:00,32.0,30.0,-100.00,ENE,57,13.0,-999.0,93,0.00,,,-99.99,,2013-01-11 00:53:00,
2013-01-10 16:02:00,32.0,30.0,-100.00,ENE,57,13.0,-999.0,93,0.00,,,-99.99,,2013-01-11 01:02:00,
2013-01-10 16:12:00,32.0,30.0,-100.00,ENE,57,13.0,-999.0,93,0.00,,,-99.99,,2013-01-11 01:12:00,
2013-01-10 16:22:00,32.0,30.0,-100.00,ENE,57,13.0,-999.0,93,0.00,,,-99.99,,2013-01-11 01:22:00,
2013-01-10 16:30:00,31.0,28.0,-100.00,NE,44,15.0,-999.0,90,0.00,,,-99.99,,2013-01-11 01:30:00,
2013-01-10 16:53:00,31.0,28.0,-100.00,NE,44,15.0,-999.0,90,0.00,,,-99.99,,2013-01-11 01:53:00,
2013-01-10 17:02:00,31.0,28.0,-100.00,NE,44,15.0,-999.0,90,0.00,,,-99.99,,2013-01-11 02:02:00,
2013-01-10 17:12:00,31.0,28.0,-100.00,NE,44,15.0,-999.0,90,0.00,,,-99.99,,2013-01-11 02:12:00,
2013-01-10 17:22:00,31.0,28.0,-100.00,NE,44,15.0,-999.0,90,0.00,,,-99.99,,2013-01-11 02:22:00,
2013-01-10 17:30:00,31.0,28.0,-100.00,NE,56,15.0,-999.0,89,0.00,,,-99.99,,2013-01-11 02:30:00,
2013-01-10 17:54:00,31.0,28.0,-100.00,NE,56,15.0,-999.0,89,0.00,,,-99.99,,2013-01-11 02:54:00,
2013-01-10 18:02:00,31.0,28.0,-100.00,NE,56,15.0,-999.0,89,0.00,,,-99.99,,2013-01-11 03:02:00,
2013-01-10 18:12:00,31.0,28.0,-100.00,NE,56,15.0,-999.0,89,0.00,,,-99.99,,2013-01-11 03:12:00,
2013-01-10 18:22:00,31.0,28.0,-100.00,NE,56,15.0,-999.0,89,0.00,,,-99.99,,2013-01-11 03:22:00,
2013-01-10 18:30:00,31.0,27.0,-100.00,NE,48,16.0,-999.0,86,0.00,,,-99.99,,2013-01-11 03:30:00,
2013-01-10 18:53:00,31.0,27.0,-100.00,NE,48,16.0,-999.0,86,0.00,,,-99.99,,2013-01-11 03:53:00,
2013-01-10 19:02:00,31.0,27.0,-100.00,NE,48,16.0,-999.0,86,0.00,,,-99.99,,2013-01-11 04:02:00,
2013-01-10 19:12:00,31.0,27.0,-100.00,NE,48,16.0,-999.0,86,0.00,,,-99.99,,2013-01-11 04:12:00,
2013-01-10 19:22:00,31.0,27.0,-100.00,NE,48,16.0,-999.0,86,0.00,,,-99.99,,2013-01-11 04:22:00,
2013-01-10 19:30:00,31.0,27.0,-100.00,ENE,58,20.0,-999.0,86,0.00,,,-99.99,,2013-01-11 04:30:00,
2013-01-10 19:53:00,31.0,27.0,-100.00,ENE,58,20.0,-999.0,86,0.00,,,-99.99,,2013-01-11 04:53:00,
2013-01-10 20:03:00,31.0,27.0,-100.00,ENE,58,20.0,-999.0,86,0.00,,,-99.99,,2013-01-11 05:03:00,
2013-01-10 20:12:00,31.0,27.0,-100.00,ENE,58,20.0,-999.0,86,0.00,,,-99.99,,2013-01-11 05:12:00,
2013-01-10 20:22:00,31.0,27.0,-100.00,ENE,58,20.0,-999.0,86,0.00,,,-99.99,,2013-01-11 05:22:00,
2013-01-10 20:30:00,31.0,28.0,-100.00,ENE,67,21.0,-999.0,86,0.00,,,-99.99,,2013-01-11 05:30:00,
2013-01-10 20:53:00,31.0,28.0,-100.00,ENE,67,21.0,-999.0,86,0.00,,,-99.99,,2013-01-11 05:53:00,
2013-01-10 21:02:00,31.0,28.0,-100.00,ENE,67,21.0,-999.0,86,0.00,,,-99.99,,2013-01-11 06:02:00,
2013-01-10 21:12:00,31.0,28.0,-100.00,ENE,67,21.0,-999.0,86,0.00,,,-99.99,,2013-01-11 06:12:00,
2013-01-10 21:22:00,31.0,28.0,-100.00,ENE,67,21.0,-999.0,86,0.00,,,-99.99,,2013-01-11 06:22:00,
2013-01-10 21:30:00,34.0,29.0,-100.00,NE,49,13.0,-999.0,82,0.00,,,-99.99,,2013-01-11 06:30:00,
2013-01-10 21:52:00,34.0,29.0,-100.00,NE,49,13.0,-999.0,82,0.00,,,-99.99,,2013-01-11 06:52:00,
2013-01-10 22:02:00,34.0,29.0,-100.00,NE,49,13.0,-999.0,82,0.00,,,-99.99,,2013-01-11 07:02:00,
2013-01-10 22:11:00,34.0,29.0,-100.00,NE,49,13.0,-999.0,82,0.00,,,-99.99,,2013-01-11 07:11:00,
2013-01-10 22:22:00,34.0,29.0,-100.00,NE,49,13.0,-999.0,82,0.00,,,-99.99,,2013-01-11 07:22:00,
2013-01-10 22:30:00,35.0,29.0,-100.00,NNE,17,10.0,-999.0,78,0.00,,,-99.99,,2013-01-11 07:30:00,
2013-01-10 22:52:00,35.0,29.0,-100.00,NNE,17,10.0,-999.0,78,0.00,,,-99.99,,2013-01-11 07:52:00,
2013-01-10 23:02:00,35.0,29.0,-100.00,NNE,17,10.0,-999.0,78,0.00,,,-99.99,,2013-01-11 08:02:00,
2013-01-10 23:12:00,35.0,29.0,-100.00,NNE,17,10.0,-999.0,78,0.00,,,-99.99,,2013-01-11 08:12:00,
2013-01-10 23:22:00,35.0,29.0,-100.00,NNE,17,10.0,-999.0,78,0.00,,,-99.99,,2013-01-11 08:22:00,
2013-01-10 23:30:00,38.0,29.0,-100.00,NNE,20,9.0,-999.0,69,0.00,,,-99.99,,2013-01-11 08:30:00,
2013-01-10 23:52:00,38.0,29.0,-100.00,NNE,20,9.0,-999.0,69,0.00,,,-99.99,,2013-01-11 08:52:00,